User: anonymous   Login
Location: NJAA Observatory
(40.6819°N, 74.8979°W)
Time: 10:57:37
(UTC-04:00)
Language:

Cosmos 2237 Rocket - Orbit

View from above orbital plane
View from above orbital plane
View from above satellite
View from above satellite

Ground track
Ground track

The orbit data is extracted from the following two-line orbital elements,

1 22566U 93016B   17147.91726305 +.00000130 +00000-0 +91709-4 0  9997
2 22566 071.0072 109.4720 0009984 176.7047 183.4143 14.14950121248393
Epoch (UTC): 27 May 2017 22:00:51
Eccentricity: 0.0009984
inclination: 71.0072°
perigee height: 835 km
apogee height: 849 km
right ascension of ascending node: 109.4720°
argument of perigee: 176.7047°
revolutions per day: 14.14950121
mean anomaly at epoch: 183.4143°
orbit number at epoch: 24839

The dashed part of the orbit path shows where the satellite is in the earth's shadow,  

DLR